COSMOS 1275 DEB, 14739

Orbit data source: Space-Track

COSMOS 1275 DEB, 14739 is space debris in LEO originally from a launch on Thu, 04 Jun 1981 UTC launched from the Plesetsk Missile And Space Complex (PKMTR). Debris objects in space refer to the collection of defunct objects orbiting the Earth. Examples of debris include non-operational satellites, rocket bodies, and fragments generated from explosions, collisions, or faulty payload assembly.

Loading next visibility...
Identifier
14739, 1981-053JU
Orbit
LEO
Country
Flag of CISCIS
Related business
Manufacturer
Unknown
Mission
Spacecraft
Bus & Motor
Unknown
Mass
Unknown
Launch date (UTC)
1981-06-04 (45 years ago)
Launch vehicle
Unknown
Launch site
Plesetsk Missile And Space Complex (PKMTR)
Object type
Payload
Rocket body
Debris
Shape & HBR
Unknown shape, 0.1 m
Radar Cross Section
Small (<0.1 m²)

Expand to show TLE details & history
Last TLE update: 8 hours ago

TLE from 8 hours ago
0 COSMOS 1275 DEB
1 14739U 81053JU  25355.38516830  .00001724  00000-0  10907-2 0  9998
2 14739  83.0064 338.8708 0057307   5.9565 354.2275 14.02708701237028
Epoch: 2025-12-21T09:14Z
TLE epoch observation values (Epoch: 2025-12-21T09:14:38.541Z)
Latitude
-0°
Longitude
110.01183°
Altitude
845.956 km
Speed
7.451 km/s
True Right ascension
22h 35m 28s
True Declination
0° 00' 00"
Sunlit
Object was in daylight at epoch
Visualization orbit readout
Latitude
Unknown
Longitude
Unknown
Altitude
Unknown
Speed
Unknown
Apparent Right ascension
Unknown
Apparent Declination
Unknown
Sunlit
N/A
Visualization observer readout
Local Sidereal Time
16:17:20
Azimuth
Unknown
Elevation
Unknown
Doppler factor
Unknown
Orbital elements
Apogee altitude
923.141 km
Perigee altitude
839.935 km
Semi-major axis
7,259.675 km
Eccentricity
0.00573
Inclination
83.0064°
RAAN
338.8708°
Arg. of periapsis
5.9565°
True anomaly
354.16098°
Mean anomaly
354.2275°
Eccentric anomaly
354.19429°
Mean motion
3.50887 °/min
Orbital period
102.6 mins
BSTAR
0.0010907
Loading maneuver chart data...
Computing Atmospheric mass density...
Loading historical data...
Loading historical data...
Loading historical data...
Loading historical data...
Loading historical data...
Loading historical data...
Loading historical data...

Documentation

Showing up to 5 results
|